GFSSE_850_thetae_336.txt.gz
Theta_e
328 330 333 334 331 330 328 324 323 321 319 317 316 315 314 313 314 314 314 315 318 321 328 329 330 330 330 329 329 329 333 333 332 328 327 328 328 327 328 328 326 321 318
326 328 334 333 330 329 325 323 321 319 316 313 311 310 309 309 309 309 309 310 311 314 322 325 329 329 329 329 330 329 329 332 332 332 328 327 327 326 328 328 327 323 318
326 326 333 331 330 328 324 321 319 316 312 308 306 305 304 304 304 304 304 304 304 305 310 314 322 326 328 329 329 329 329 329 330 330 328 326 325 323 325 328 327 322 316
325 326 326 329 329 326 322 319 316 312 306 304 304 304 304 303 303 303 303 303 303 304 304 305 308 315 321 326 329 329 329 329 329 330 329 325 323 325 324 328 326 319 315
323 324 325 328 328 324 321 317 312 306 304 304 304 303 303 303 303 303 303 303 302 302 302 303 304 304 310 311 324 329 329 329 329 330 330 327 325 326 325 329 325 317 314
322 322 325 327 325 322 318 313 307 304 304 304 303 303 303 303 303 303 303 303 302 302 302 302 302 302 303 304 305 320 327 329 329 329 330 329 326 326 326 330 328 320 319
321 323 325 325 323 319 315 309 305 304 304 303 303 303 303 303 303 303 303 303 302 302 302 302 302 302 302 302 303 305 314 323 328 329 329 329 328 327 327 329 330 321 316
321 321 324 323 320 317 311 306 304 304 304 303 303 303 304 304 304 304 303 302 302 302 301 301 301 301 301 301 302 302 303 309 321 328 329 329 329 328 327 328 331 328 323
321 321 321 320 318 314 308 305 305 304 304 304 304 304 305 304 304 303 303 302 302 301 301 301 301 301 301 301 301 301 301 302 307 321 328 329 329 329 328 328 332 328 324
321 321 320 319 317 312 308 305 305 305 304 305 305 305 305 304 304 302 301 303 304 305 305 305 305 303 302 301 301 301 301 301 302 307 320 328 329 329 329 328 329 322 325
322 320 319 318 315 311 307 306 306 305 305 305 306 305 304 304 301 303 305 305 305 304 304 304 304 304 304 302 302 301 301 301 301 303 307 324 328 329 329 328 329 324 327
320 320 319 317 314 311 308 307 306 306 306 306 306 305 304 301 304 305 304 303 303 303 304 304 305 305 305 304 303 302 302 301 301 301 303 314 326 328 329 329 329 326 325
319 320 318 317 314 312 309 307 307 307 306 306 306 304 302 303 305 303 302 302 303 303 303 303 304 304 304 305 306 305 305 304 301 301 303 317 326 326 328 328 329 325 325
318 319 319 317 315 313 310 308 308 307 307 306 305 303 301 305 303 301 302 303 304 304 305 304 306 307 306 305 306 306 306 306 305 302 301 313 323 325 327 328 328 326 324
319 318 318 317 315 314 311 309 308 308 307 306 304 301 304 305 301 303 304 305 306 306 305 306 305 307 308 307 306 307 307 308 309 313 301 307 321 324 325 327 329 328 325
318 318 318 317 316 315 312 309 309 308 307 306 303 301 305 303 302 305 306 306 305 306 305 306 308 309 307 308 308 311 312 314 315 318 305 306 319 323 324 326 328 325 321
316 317 318 318 317 315 313 310 310 308 307 304 301 305 304 302 304 306 307 306 306 307 308 310 309 308 307 309 310 309 311 311 314 315 313 317 322 323 323 326 329 322 322
316 317 318 319 318 316 313 311 310 308 306 303 302 305 302 303 306 307 308 307 306 307 309 309 310 310 309 310 311 311 311 313 313 316 317 317 322 323 322 325 321 323 320
315 317 318 319 318 316 313 311 310 307 305 302 304 303 302 304 306 308 308 308 308 308 309 310 309 309 310 311 312 311 312 314 314 316 316 314 317 322 323 326 322 322 322
315 317 319 319 318 316 313 311 309 306 303 301 305 302 302 304 307 308 309 309 309 310 309 310 310 309 309 311 312 312 313 315 316 316 319 316 315 322 323 324 321 324 321
315 317 318 318 317 315 313 311 307 305 303 302 305 302 303 304 307 309 309 310 311 310 309 310 310 310 309 312 313 314 312 314 314 317 318 321 322 323 324 321 321 322 323
314 316 318 318 316 314 312 309 306 303 301 304 304 303 303 305 308 309 310 311 312 311 310 310 311 310 311 312 312 312 314 315 316 317 320 320 322 322 320 320 322 322 323
315 316 317 316 315 313 310 307 305 303 301 306 304 303 302 305 308 310 310 311 311 311 310 310 310 312 311 311 312 312 313 314 315 317 319 321 321 320 320 322 322 321 319
315 316 316 315 313 311 308 306 303 301 303 306 304 302 303 306 308 310 310 311 311 312 311 311 311 311 311 311 312 313 314 314 314 314 317 320 321 320 321 320 318 315 317
315 315 315 313 310 309 307 304 303 301 303 306 303 303 303 306 308 310 311 311 311 312 312 310 311 311 311 311 312 313 314 314 316 317 314 317 319 320 318 319 317 316 316
315 314 312 310 309 307 306 304 303 301 304 306 304 304 304 306 308 309 310 311 311 312 312 311 311 311 311 311 312 313 314 315 316 316 314 316 317 317 318 318 317 316 315

GFSSE_850_thetae_339.txt.gz
Theta_e
326 329 334 333 331 330 328 325 323 321 319 317 315 313 312 312 311 312 313 313 314 316 320 328 329 329 330 330 329 328 331 333 332 330 328 328 329 327 329 328 325 320 313
326 329 333 333 330 329 328 324 321 319 317 314 311 309 308 307 307 307 308 308 309 310 313 316 322 328 329 329 329 329 328 331 332 332 330 327 327 327 326 327 325 323 314
325 327 334 331 329 329 326 322 320 317 314 309 306 304 304 304 304 304 304 304 304 304 305 308 314 321 325 327 328 328 329 329 330 331 331 329 327 326 325 327 327 323 315
325 326 330 330 329 328 324 321 318 314 308 304 304 304 304 303 303 303 302 302 303 303 303 304 304 307 313 315 323 328 328 329 329 330 330 329 326 324 325 325 328 323 315
326 325 324 326 328 326 323 320 315 309 305 304 304 303 303 303 303 303 303 303 302 302 302 302 302 303 304 305 309 322 328 329 329 329 330 329 327 324 326 327 328 322 313
322 322 323 327 327 324 321 316 310 305 304 304 303 303 303 303 303 303 303 303 303 302 302 302 302 302 302 302 303 305 316 327 328 329 329 330 328 326 326 328 328 322 314
319 321 323 326 324 321 317 312 306 304 304 304 303 303 303 303 304 304 304 303 303 302 302 302 302 302 301 302 302 302 303 313 324 328 329 329 329 328 327 328 329 325 314
320 321 323 324 322 318 314 308 305 304 304 304 303 304 304 304 304 304 303 303 303 303 302 302 302 302 301 301 301 301 301 302 311 322 328 329 329 329 328 328 330 328 322
320 320 322 322 319 316 311 306 305 305 304 304 304 305 305 304 304 304 303 302 303 305 305 305 305 305 303 302 301 301 301 301 302 309 322 330 329 329 328 328 329 330 322
320 320 320 319 318 314 309 306 305 305 305 305 305 305 305 304 304 302 305 306 305 304 304 305 305 305 305 305 304 302 301 301 301 301 307 322 328 329 329 328 329 330 325
320 319 319 318 317 313 308 306 306 305 305 306 306 305 304 303 302 305 304 303 303 303 303 303 303 304 304 304 305 304 302 301 301 301 301 306 321 327 329 329 329 328 323
319 319 318 317 316 312 309 307 306 306 306 306 306 305 304 301 305 304 302 303 303 303 303 303 303 303 303 303 304 305 304 303 302 301 301 302 306 325 328 329 328 329 324
318 320 319 317 315 312 310 307 307 307 307 306 306 304 302 304 304 302 302 304 304 305 305 305 305 305 306 305 304 305 305 304 304 302 301 301 303 319 327 329 328 328 328
319 319 319 317 315 313 311 308 308 308 307 306 305 303 302 305 302 302 304 306 306 305 304 304 305 305 307 307 306 305 306 306 305 305 302 301 307 322 325 328 329 328 325
319 318 318 317 316 314 312 309 308 308 307 306 304 302 305 304 302 304 306 306 306 305 306 307 307 307 308 307 308 308 311 309 311 311 306 301 308 322 322 326 328 329 325
319 318 318 317 316 315 313 310 309 309 307 306 303 302 305 302 304 306 307 307 305 307 309 309 310 309 307 309 309 310 311 312 313 314 315 302 307 318 322 324 327 325 321
318 318 317 317 317 315 313 311 310 309 307 305 302 305 303 302 305 307 308 307 307 307 309 309 309 309 309 309 309 311 310 311 312 314 313 305 310 319 324 323 327 320 320
318 317 317 317 317 316 314 311 310 309 306 304 302 305 302 304 306 308 308 308 309 308 309 309 309 309 309 310 310 310 310 312 313 315 315 315 317 321 322 323 322 321 322
316 317 317 318 318 316 314 312 311 308 306 303 303 304 302 304 306 308 309 309 310 310 309 309 309 309 310 310 311 311 312 315 314 315 316 315 320 322 321 324 318 320 322
316 316 317 318 318 317 314 312 311 307 304 302 305 303 302 304 306 308 309 310 311 309 309 309 309 309 311 312 313 312 312 313 315 317 317 313 318 320 321 323 322 321 322
315 315 317 318 318 316 314 312 310 306 303 301 305 303 303 304 307 309 310 311 311 310 310 309 309 310 312 312 313 313 313 314 315 315 316 318 317 322 322 323 322 323 324
313 315 317 318 318 316 313 312 308 305 303 302 305 303 303 305 308 309 310 311 311 310 310 310 310 310 311 311 312 312 313 315 316 317 320 321 323 323 323 320 323 322 321
313 315 317 318 317 314 313 310 307 304 301 304 305 303 302 305 308 309 310 311 311 311 310 310 310 310 311 312 312 313 313 314 315 319 320 321 318 318 320 320 322 320 318
314 316 317 317 315 313 311 308 305 303 301 306 305 303 303 305 307 309 311 311 311 311 311 310 311 311 311 311 313 313 315 315 314 313 319 320 318 318 317 317 319 317 316
315 316 317 315 314 312 309 306 304 302 302 306 304 303 303 306 308 310 310 311 311 312 311 311 311 311 311 311 313 314 315 316 315 315 315 315 318 317 315 314 313 315 314
315 316 315 314 312 310 307 305 303 301 302 306 304 304 304 306 308 309 310 311 311 311 312 311 311 311 311 311 312 314 314 316 316 317 318 318 316 316 316 316 314 315 313

GFSSE_850_thetae_342.txt.gz
Theta_e
327 332 333 332 333 331 329 327 323 321 319 316 314 311 310 310 310 310 310 311 313 314 317 319 325 329 329 329 330 328 329 333 332 329 328 329 329 328 328 327 325 322 309
326 331 332 331 333 329 328 325 322 320 318 314 310 307 306 306 306 306 306 306 307 308 309 311 316 320 325 328 329 329 328 329 332 332 330 328 328 328 326 328 325 326 311
327 332 332 331 330 329 327 323 321 320 315 309 305 304 304 304 304 304 304 303 304 304 304 304 309 314 318 321 325 327 328 328 329 331 331 331 330 327 328 326 326 323 313
327 328 332 331 329 328 326 323 321 317 310 305 304 304 303 303 303 302 302 302 302 302 302 303 303 304 307 312 316 321 327 328 328 329 330 332 330 328 327 327 327 324 315
327 324 325 327 329 327 324 322 318 311 305 304 304 303 303 303 303 303 303 302 302 302 302 302 302 302 302 303 305 309 321 328 328 329 330 331 330 330 325 328 327 325 316
325 322 323 326 328 325 322 319 313 306 304 304 303 303 303 303 303 303 303 303 303 303 302 302 302 302 302 302 302 303 307 315 327 329 329 330 330 329 325 327 327 327 315
323 321 323 327 326 323 320 314 307 304 304 304 303 303 303 304 304 304 304 303 303 303 303 302 302 302 302 301 301 302 302 303 309 325 328 329 330 329 327 327 329 328 317
320 320 324 325 324 320 316 309 305 304 304 304 304 304 305 305 304 304 304 304 303 303 303 303 303 303 302 302 301 301 301 302 302 313 322 329 329 329 329 327 328 329 321
320 320 322 323 321 317 313 307 305 305 304 304 305 305 305 304 305 304 302 305 306 305 305 305 305 305 305 305 305 304 302 301 301 302 308 319 328 329 329 328 328 330 324
320 320 321 320 318 316 311 306 305 305 305 305 305 305 305 305 303 303 306 304 304 304 304 304 304 304 304 304 304 305 304 302 301 301 301 307 316 327 328 329 328 329 326
319 319 319 319 317 314 310 306 306 305 306 306 306 305 305 303 304 305 303 303 303 304 304 305 305 304 304 303 303 304 305 307 305 304 302 301 306 322 327 329 329 329 329
319 318 318 318 317 314 309 307 306 306 306 306 306 305 304 303 305 303 303 304 305 306 305 305 305 305 305 305 307 306 308 309 307 309 305 301 301 310 325 328 329 329 328
319 319 318 317 316 313 310 308 307 307 307 306 306 305 302 305 304 302 304 306 306 305 305 304 305 305 306 307 308 308 308 309 310 310 305 301 301 303 319 327 329 329 325
319 319 319 317 316 313 311 309 307 308 307 307 306 303 303 305 302 304 306 306 306 306 308 309 308 308 307 307 307 307 309 311 310 308 308 302 301 302 311 327 328 328 325
320 319 318 318 316 314 312 310 308 308 308 307 305 302 305 303 303 306 307 307 306 307 309 309 309 309 307 309 309 310 311 311 311 311 312 305 301 302 306 326 328 329 327
320 319 318 318 316 315 313 311 309 309 308 306 304 302 305 302 305 307 307 308 308 308 309 309 309 309 309 309 310 310 310 311 313 314 314 311 301 311 322 324 326 328 326
319 319 318 318 317 315 314 312 310 309 308 306 302 305 303 303 306 308 308 309 310 309 309 309 309 309 310 310 310 310 310 312 313 314 311 302 306 319 321 322 323 321 323
319 318 318 318 317 316 314 312 310 310 307 304 302 305 302 304 306 308 309 309 310 309 309 309 309 310 311 310 311 310 311 312 313 315 314 314 315 317 320 322 323 320 319
317 319 318 317 317 317 315 313 311 310 307 303 303 304 302 304 306 309 309 310 310 309 309 309 310 310 311 310 312 312 312 313 316 316 314 319 321 320 320 323 321 321 321
314 318 318 317 317 317 315 313 311 309 306 303 304 303 303 304 307 309 310 310 310 309 309 309 310 311 312 312 312 313 313 314 315 314 314 319 320 321 322 321 321 321 321
312 317 317 317 318 317 315 313 311 308 305 302 305 303 303 304 308 310 311 310 310 309 309 309 310 312 311 312 312 313 315 315 315 317 320 319 320 322 319 318 319 323 321
311 316 316 317 318 317 315 313 311 307 304 301 305 303 303 305 308 310 311 311 310 310 310 310 310 311 312 312 312 314 315 316 318 319 319 321 323 322 320 320 321 322 321
313 315 315 317 318 317 315 313 310 306 303 302 305 303 302 305 308 310 311 311 310 310 309 311 311 311 312 312 313 314 315 314 315 318 318 319 321 322 322 320 321 318 318
313 314 316 317 318 316 314 312 308 304 301 304 305 303 303 305 308 310 311 311 311 310 309 311 311 311 311 313 314 314 315 315 314 313 317 315 316 320 319 318 315 316 315
313 314 317 318 317 315 313 310 306 303 301 305 305 303 303 306 308 310 310 311 310 311 310 311 311 311 311 313 314 315 315 316 316 313 313 316 318 317 316 316 316 311 310
314 316 317 317 316 314 311 308 305 303 301 306 305 304 304 306 308 309 310 311 310 312 311 311 311 311 311 313 314 315 316 316 316 314 314 314 314 314 314 313 314 313 313

GFSSE_850_thetae_345.txt.gz
Theta_e
333 335 332 332 333 333 331 327 323 321 319 316 313 310 308 308 308 308 309 309 310 312 314 317 318 327 329 329 329 329 328 329 332 331 327 328 329 329 328 327 324 327 311
333 335 333 332 331 333 329 326 322 320 319 315 310 306 305 304 304 304 304 305 305 306 307 309 312 316 321 324 328 329 329 328 330 332 332 329 328 329 328 329 324 329 310
334 334 331 331 331 330 328 325 322 320 316 311 305 304 304 304 304 303 303 303 303 303 304 304 304 307 312 316 323 327 328 329 329 330 332 331 331 328 328 327 325 327 312
333 334 332 331 330 329 327 323 321 318 312 306 304 304 303 303 303 303 303 303 303 303 302 302 302 303 304 306 311 318 322 326 328 329 330 331 332 331 328 328 327 325 315
333 333 329 330 328 328 326 322 320 314 307 304 304 303 303 303 303 303 303 303 303 303 302 302 302 302 302 302 303 304 310 316 323 328 329 330 330 332 329 327 327 326 319
334 326 323 325 327 327 324 321 315 308 304 304 304 303 303 303 303 304 304 304 303 303 303 303 302 302 302 302 302 302 302 306 311 326 329 330 330 331 331 326 328 326 322
330 323 322 325 327 325 321 317 310 305 304 304 304 303 304 304 305 304 304 304 304 303 303 303 303 303 303 303 302 302 302 302 303 309 325 329 330 330 330 327 328 327 325
329 321 322 325 325 322 318 313 306 305 304 304 304 304 305 305 304 304 304 303 304 305 305 305 305 305 305 305 305 305 303 302 301 302 312 322 330 329 330 328 328 329 327
328 322 324 325 323 320 316 309 305 305 305 304 305 305 305 304 305 303 304 306 305 304 304 304 304 304 304 304 304 305 305 305 303 301 308 316 321 328 329 329 328 329 329
327 326 325 323 321 317 314 308 306 305 305 305 306 306 305 305 303 306 305 303 303 304 305 305 305 306 306 305 304 304 304 305 305 302 304 309 316 322 327 328 329 329 329
326 325 324 322 320 317 313 308 306 306 306 306 306 306 305 303 305 304 303 304 305 305 306 305 304 304 304 306 307 308 305 305 312 313 311 310 305 308 324 327 329 328 329
324 322 320 319 318 316 312 308 307 306 307 307 306 305 304 304 305 303 304 306 306 305 305 306 306 306 310 310 312 311 311 311 311 312 312 311 304 302 316 325 327 329 329
323 319 318 318 317 315 312 309 307 307 308 307 306 305 302 305 303 304 306 306 306 307 310 310 310 310 309 310 311 312 312 312 312 312 312 308 303 301 306 322 327 328 329
325 319 318 317 316 315 312 310 308 308 308 307 306 304 304 304 303 306 307 308 309 310 311 310 310 312 313 309 310 311 312 313 313 313 313 308 302 301 302 319 326 328 328
325 319 318 318 317 315 313 311 309 308 308 307 306 303 305 303 304 307 307 309 311 310 311 310 311 311 311 309 311 311 310 311 313 315 315 315 303 301 302 313 325 328 328
323 319 318 318 317 315 314 312 310 309 309 307 305 302 305 303 305 307 308 310 311 312 310 311 310 312 312 312 311 310 310 311 313 314 314 314 304 301 302 308 325 328 326
321 320 318 318 317 316 314 313 311 309 309 307 304 304 303 304 306 308 309 312 312 312 311 311 311 312 311 310 310 310 310 312 314 315 312 310 302 306 308 321 324 326 327
322 320 319 318 317 316 315 314 312 310 309 306 303 305 303 304 306 309 310 314 309 312 311 311 313 312 311 312 311 311 312 315 316 315 316 313 314 320 322 321 322 322 320
321 319 319 318 317 317 316 314 312 310 309 305 302 305 303 304 307 310 311 310 310 312 312 311 314 312 312 311 313 312 313 315 314 315 315 316 316 317 317 322 321 321 319
318 319 319 318 317 317 316 315 313 311 308 305 302 305 303 304 308 310 311 311 310 313 312 312 312 314 312 312 312 315 315 314 316 316 318 318 320 321 323 322 321 320 321
317 319 318 318 317 317 317 315 313 311 308 304 302 304 303 304 309 310 311 310 310 310 311 311 314 315 312 312 314 313 316 315 317 318 319 321 323 322 320 321 322 321 323
316 317 318 318 317 317 317 315 313 311 307 303 303 304 303 305 309 310 311 311 310 310 310 313 313 313 312 313 314 315 315 316 319 319 321 320 320 319 320 318 321 321 321
313 316 316 317 316 317 317 315 312 309 305 302 304 304 303 304 308 310 311 311 311 310 311 311 311 312 313 314 314 314 315 314 315 320 319 319 320 319 320 318 319 320 318
312 314 315 317 316 317 317 314 312 308 304 301 306 304 303 305 308 310 311 311 311 310 311 311 311 311 313 315 315 316 316 315 314 313 318 319 317 319 318 318 317 316 315
313 314 316 316 317 317 316 314 311 307 303 302 306 304 303 305 308 310 311 311 311 311 311 311 311 311 313 316 315 315 316 316 315 313 312 314 317 317 316 316 315 315 312
315 315 316 316 317 317 315 313 310 306 302 302 306 304 304 305 308 309 311 311 311 310 311 311 311 311 313 314 316 315 317 316 315 314 312 311 312 314 314 312 311 310 315